User: anonymous   Login
Location: Cranbrook Institute of Science
(42.5830°N, 83.2450°W)
Time: 00:30:58
(UTC-05:00)
Language:

CZ-4B R/B - Orbit

View from above orbital plane
View from above orbital plane
View from above satellite
View from above satellite

Ground track
Ground track

The orbit data is extracted from the following two-line orbital elements,

1 29093U 06015B   14353.83017116  .00014139  00000-0  47177-3 0  4776
2 29093 097.5087 074.2211 0084042 328.6334 144.6341 15.27761636477886
Epoch (UTC): 19 December 2014 19:55:26
Eccentricity: 0.0084042
inclination: 97.5087°
perigee height: 425 km
apogee height: 540 km
right ascension of ascending node: 74.2211°
argument of perigee: 328.6334°
revolutions per day: 15.27761636
mean anomaly at epoch: 144.6341°
orbit number at epoch: 47788

The dashed part of the orbit path shows where the satellite is in the earth's shadow,  

DLR